Weather History for Muskegon, MI

Change the Weather History Date:

Wednesday, February 19, 2014

  Actual Average Record
Temperature  
Mean Temperature 33 °F 28 °F  
Max Temperature 38 °F 34 °F 57 °F (1954)
Min Temperature 27 °F 22 °F -14 °F (1920)
Degree Days  
Heating Degree Days 32 37  
Month to date heating degree days 890 736  
Since 1 July heating degree days 4733 4408  
Cooling Degree Days 0 0  
Month to date cooling degree days 0 0  
Year to date cooling degree days 0 0  
Moisture  
Dew Point 27 °F    
Average Humidity 74    
Maximum Humidity 89    
Minimum Humidity 59    
Precipitation  
Precipitation 0.02 in 0.07 in 0.88 in (1994)
Month to date precipitation 1.23 1.18  
Year to date precipitation 4.55 3.21  
Snow  
Snow T in 0.70 in 6.90 in (2013)
Month to date snowfall 24.2 14.1  
Since 1 July snowfall 120.7 77.2  
Snow Depth 23.00 in    
Sea Level Pressure  
Sea Level Pressure 29.81 in    
Wind  
Wind Speed 9 mph (WSW)    
Max Wind Speed 15 mph    
Max Gust Speed 21 mph    
Visibility 8 miles    
Events Snow    
T = Trace of Precipitation, MM = Missing Value Source: NWS Daily Summary

Daily Weather History Graph

Daily Weather History Graph

Search for Another Location

Airport:

Trip Planner

Search our weather history database for the weather conditions in past years. The results will help you decide how hot, cold, wet, or windy it might be!

Date:

Astronomy

Feb. 19, 2014 Rise Set
Actual Time 7:36 AM EST 6:21 PM EST
Civil Twilight 7:07 AM EST 6:50 PM EST
Nautical Twilight 6:34 AM EST 7:23 PM EST
Astronomical Twilight 6:01 AM EST 7:56 PM EST
Moon 11:23 PM EST (2/19) 9:34 AM EST (2/19)
Length of Visible Light 11h 42m
Length of Day
10h 44m
Waning Gibbous, 80% of the Moon is Illuminated
Feb 19
Waning Gibbous
Feb 22
Last Quarter
Mar 1
New
Mar 8
First Quarter
Mar 16
Full

Hourly Weather History & Observations

Time (EST) Temp. Windchill Dew Point Humidity Pressure Visibility Wind Dir Wind Speed Gust Speed Precip Events Conditions
12:55 AM 34.0 °F 25.0 °F 28.0 °F 79% 29.63 in 10.0 mi SW 12.7 mph - N/A   Clear
1:55 AM 35.1 °F 27.9 °F 28.0 °F 76% 29.62 in 10.0 mi WSW 9.2 mph - N/A   Clear
2:55 AM 34.0 °F 26.6 °F 28.0 °F 79% 29.63 in 10.0 mi West 9.2 mph - N/A   Clear
3:55 AM 34.0 °F 29.8 °F 27.0 °F 75% 29.62 in 10.0 mi NW 4.6 mph - N/A   Clear
4:55 AM 30.9 °F 27.5 °F 26.1 °F 82% 29.62 in 8.0 mi WNW 3.5 mph - N/A   Clear
5:55 AM 33.1 °F 26.9 °F 26.1 °F 75% 29.66 in 10.0 mi WNW 6.9 mph - N/A   Overcast
6:38 AM 34.0 °F 26.0 °F 28.0 °F 79% 29.68 in 7.0 mi West 10.4 mph - 0.00 in Snow Light Snow
6:45 AM 34.0 °F 25.5 °F 28.0 °F 79% 29.70 in 1.0 mi West 11.5 mph - 0.00 in Snow Light Snow
6:55 AM 33.1 °F 24.4 °F 30.0 °F 89% 29.72 in 1.0 mi West 11.5 mph - 0.00 in Snow Light Snow
7:08 AM 33.1 °F 24.9 °F 30.0 °F 89% 29.70 in 1.0 mi WNW 10.4 mph - 0.01 in Snow Light Snow
7:18 AM 33.1 °F 26.9 °F 30.0 °F 89% 29.70 in 1.0 mi West 6.9 mph - 0.02 in Snow Light Snow
7:40 AM 33.1 °F 24.4 °F 28.9 °F 85% 29.72 in 1.0 mi WNW 11.5 mph - 0.02 in Snow Light Snow
7:46 AM 33.1 °F 26.1 °F 28.9 °F 85% 29.73 in 3.0 mi West 8.1 mph - 0.02 in Snow Light Snow
7:55 AM 33.1 °F 27.7 °F 30.0 °F 89% 29.75 in 3.0 mi West 5.8 mph - 0.02 in Snow Light Snow
8:17 AM 33.1 °F 26.9 °F 28.9 °F 85% 29.75 in 5.0 mi WNW 6.9 mph - 0.00 in   Overcast
8:55 AM 34.0 °F 26.6 °F 27.0 °F 75% 29.79 in 7.0 mi West 9.2 mph - 0.00 in   Mostly Cloudy
9:55 AM 36.0 °F 28.0 °F 27.0 °F 70% 29.82 in 9.0 mi West 11.5 mph - N/A   Scattered Clouds
10:55 AM 36.0 °F 27.1 °F 27.0 °F 70% 29.85 in 10.0 mi WNW 13.8 mph - N/A   Clear
11:55 AM 37.9 °F 32.7 °F 27.0 °F 65% 29.87 in 10.0 mi WNW 6.9 mph - N/A   Clear
12:55 PM 37.0 °F 29.8 °F 26.1 °F 65% 29.88 in 10.0 mi West 10.4 mph - N/A   Clear
1:55 PM 37.0 °F 29.3 °F 26.1 °F 65% 29.90 in 10.0 mi West 11.5 mph - N/A   Clear
2:55 PM 37.9 °F 30.9 °F 25.0 °F 60% 29.92 in 10.0 mi WSW 10.4 mph - N/A   Clear
3:55 PM 37.0 °F 28.5 °F 26.1 °F 65% 29.94 in 10.0 mi SW 13.8 mph - N/A   Clear
4:55 PM 36.0 °F 27.5 °F 27.0 °F 70% 29.96 in 10.0 mi SW 12.7 mph - N/A   Partly Cloudy
5:55 PM 36.0 °F 28.5 °F 27.0 °F 70% 29.99 in 10.0 mi SSW 10.4 mph - N/A   Scattered Clouds
6:55 PM 34.0 °F 28.0 °F 26.1 °F 73% 30.00 in 10.0 mi South 6.9 mph - N/A   Scattered Clouds
7:55 PM 34.0 °F 28.8 °F 26.1 °F 73% 29.99 in 9.0 mi South 5.8 mph - N/A   Scattered Clouds
8:55 PM 28.9 °F 22.8 °F 24.1 °F 82% 29.99 in 6.0 mi SE 5.8 mph - N/A   Haze
9:55 PM 33.1 °F 24.9 °F 26.1 °F 75% 30.00 in 8.0 mi South 10.4 mph - N/A   Scattered Clouds
10:55 PM 35.1 °F 27.4 °F 26.1 °F 70% 30.00 in 10.0 mi South 10.4 mph - N/A   Scattered Clouds
11:55 PM 34.0 °F 25.5 °F 26.1 °F 73% 30.01 in 10.0 mi South 11.5 mph - N/A   Clear